www.pogodaiklimat.ru

АРХИВ ПОГОДЫ в Пенсаколе

Время (UTC), дата Ветер
(напр.,м/с)
 
Видим.   Явления Облачность Т
(С)
Тd
(С)
f
(%)
Тe
(С)
Тes
(С)
Комфортность

P
(гПа)

Po
(гПа)
Тmin
(С)
Tmax
(С)
R
(мм)
SD
(см)
01:53 24.06 Ю  16 км    2/2 600 м  +28.9  +26.1  85  +44  +44  опасность
перегрева 
1016.2  1011.8         
02:53 24.06 Ю  16 км    2/2 600 м  +28.9  +26.7  88  +45  +45  опасность
перегрева 
1015.6  1011.1         
03:53 24.06 Ю  16 км    ясно  +28.9  +26.1  85  +44  +44  опасность
перегрева 
1015.4  1010.8         
04:53 24.06 Ю  16 км    5/5 570 м  +28.3  +26.7  91  +44  +44  опасность
перегрева 
1015.1  1010.5  +28.3  +30.0     
05:53 24.06 Ю  16 км    5/5 600 м  +28.3  +26.1  88  +43  +43  опасность
перегрева 
1014.7  1010.1         
06:53 24.06 Ю  16 км    2/2 600 м  +28.9  +26.1  85  +44  +44  опасность
перегрева 
1014.2  1009.8         
07:17 24.06 Ю  16 км    8/8 570 м  +28.9  +26.7  88  +45  +45  опасность
перегрева 
  1009.4         
07:39 24.06 Ю  16 км    5/5 570 м  +28.3  +26.1  88  +43  +43  опасность
перегрева 
  1009.4         
07:53 24.06 Ю  16 км    2/2 570 м  +28.3  +26.1  88  +43  +43  опасность
перегрева 
1014.1  1009.8         
08:53 24.06 Ю  16 км    2/2 660 м  +28.3  +25.6  85  +42  +42  опасность
перегрева 
1014.0  1009.4         
09:53 24.06 ЮЗ  16 км    ясно  +28.3  +25.6  85  +42  +42  опасность
перегрева 
1014.2  1009.8         
10:53 24.06 ЮЗ  14 км    5/5 720 м  +28.9  +26.1  85  +44  +44  опасность
перегрева 
1014.8  1010.5  +28.3  +28.9     
11:53 24.06 ЮЗ  16 км    5/5 1080 м  +30.6  +25.6  75  +45  +45  опасность
перегрева 
1015.5  1011.1         
12:53 24.06 ЮЗ  7
{11} 
16 км    2/2 810 м  +31.1  +25.6  73  +46  +46  опасность
перегрева 
1016.1  1011.5         
13:53 24.06 ЮЗ  6
{13} 
16 км    8/8 810 м  +31.7  +25.6  70  +46  +47  опасность
перегрева 
1016.1  1011.5         
14:53 24.06 З  6
{9} 
16 км    5/5 990 м  +32.8  +24.4  61  +45  +47  опасность
перегрева 
1016.1  1011.5         
15:53 24.06 ЮЗ  8
{10} 
16 км    2/2 1050 м  +33.3  +24.4  60  +46  +47  опасность
перегрева 
1016.3  1011.8         
16:53 24.06 ЮЗ  6
{9} 
16 км    5/5 840 м  +31.1  +22.2  59  +40  +43  очень
душно 
1016.2  1011.8  +28.9  +33.9     
17:53 24.06 ЮЗ  7
{9} 
16 км    5/5 840 м  +32.8  +22.8  56  +43  +45  опасность
перегрева 
1015.9  1011.5         
18:53 24.06 ЮЗ  16 км    ясно  +31.7  +23.3  61  +42  +47  опасность
перегрева 
1015.3  1010.8         
19:53 24.06 ЮЗ  16 км    ясно  +32.2  +22.2  56  +41  +47  опасность
перегрева 
1014.8  1010.5         
20:53 24.06 ЮЗ  16 км    ясно  +31.1  +22.8  61  +41  +45  опасность
перегрева 
1014.7  1010.1         
21:53 24.06 ЮЗ  16 км    ясно  +30.6  +21.7  59  +39  +42  очень
душно 
1014.5  1010.1         
22:53 24.06 ЮЗ  16 км    ясно  +30.0  +23.3  67  +40  +42  очень
душно 
1014.6  1010.1  +30.0  +32.8     
23:53 24.06 ЮЗ  16 км    ясно  +29.4  +23.9  72  +40  +41  очень
душно 
1014.6  1010.1         
00:53 25.06 ЮЗ  16 км    ясно  +28.3  +24.4  79  +40  +40  очень
душно 
1014.8  1010.5         
01:53 25.06 ЮЗ  16 км    ясно  +28.3  +25.6  85  +42  +42  опасность
перегрева 
1015.5  1011.1         
02:53 25.06 ЮЗ  16 км    ясно  +27.8  +26.1  90  +42  +42  опасность
перегрева 
1015.8  1011.5         
03:53 25.06 ЮЗ  16 км    ясно  +27.8  +26.1  90  +42  +42  опасность
перегрева 
1015.7  1011.1         
04:38 25.06 ЮЗ  16 км    8/8 450 м  +27.8  +26.7  94  +43  +43  опасность
перегрева 
  1011.1         
04:53 25.06 ЮЗ  16 км    8/8 450 м  +27.8  +27.2  97  +44  +44  опасность
перегрева 
1015.5  1011.1  +27.8  +30.0     
05:18 25.06 ЮЗ  14 км    8/8 420 м  +27.8  +27.2  97  +44  +44  опасность
перегрева 
  1011.1         
05:30 25.06 ЮЗ  14 км    5/5 420 м  +27.8  +27.2  97  +44  +44  опасность
перегрева 
  1011.1         
05:53 25.06 ЮЗ  14 км    ясно  +27.8  +27.2  97  +44  +44  опасность
перегрева 
1015.9  1011.5         
06:53 25.06 З  14 км    2/2 540 м  +27.8  +27.2  97  +44  +44  опасность
перегрева 
1016.3  1011.8         
07:53 25.06 З  13 км    ясно  +27.8  +27.2  97  +44  +44  опасность
перегрева 
1016.4  1011.8         
08:53 25.06 З  13 км    ясно  +27.8  +27.2  97  +44  +44  опасность
перегрева 
1016.7  1012.1         
09:53 25.06 ЮЗ  11 км    ясно  +27.8  +27.2  97  +44  +44  опасность
перегрева 
1017.3  1012.8         
10:53 25.06 ЮЗ  11 км    ясно  +28.3  +27.2  94  +45  +45  опасность
перегрева 
1017.6  1013.2  +27.2  +28.3     
11:53 25.06 ЮЗ  11 км    ясно  +28.9  +27.2  91  +46  +47  опасность
перегрева 
1018.1  1013.5         
12:53 25.06 З  13 км    ясно  +28.9  +27.2  91  +46  +49  опасность
перегрева 
1018.3  1013.8         
13:53 25.06 нст  14 км    ясно  +31.7  +26.7  75  +49  +55  опасность
перегрева 
1018.1  1013.5         
14:53 25.06 З  16 км    5/5 840 м  +32.8  +25.0  64  +47  +51  опасность
перегрева 
1018.5  1013.8         
15:53 25.06 ЮЗ  16 км    ясно  +33.9  +23.9  56  +45  +60  опасность
перегрева 
1018.3  1013.8         
16:53 25.06 нст  16 км    2/2 1320 м  +34.4  +22.8  51  +44  +62  опасность
перегрева 
1018.0  1013.5  +28.3  +34.4     
17:53 25.06 З  16 км    2/2 1290 м  +34.4  +22.2  49  +43  +56  опасность
перегрева 
1017.9  1013.5         
18:53 25.06 З  16 км    2/2 1410 м  +35.0  +22.8  49  +45  +58  опасность
перегрева 
1017.4  1012.8         
19:53 25.06 нст  16 км    ясно  +34.4  +21.7  48  +43  +58  опасность
перегрева 
1017.0  1012.5         

 

Местоположение метеостанции Pensacola Regional Airport: широта 30.4781 долгота -87.1869 высота над уровнем моря 36 м.

В архиве по умолчанию представлена погода в Пенсаколе за последние 1-2 суток. Обновление информации о фактической погоде в базе происходит ежечасно! Архивные данные за месяц целиком и за предыдущие месяцы Вы можете получить, выбрав интересующий диапазон дат из раскрывающегося списка и нажав кнопку "Ввод!".

Внимание! Архив погоды МЕТАР в базе сайта в настоящее время начинается c 1 января 2011 г. Нет смысла пытаться выбрать более раннюю дату.

Внимание! Время в таблицах - всемирное. Для получения местного времени необходимо прибавить поправку, которая в Пенсаколе равна -6 ч.

Ветер - указаны скорость ветра в м/с и направление, откуда дует ветер: С - северный, СВ - северо-восточный, В - восточный, ЮВ - юго-восточный, Ю - южный, ЮЗ - юго-западный, З - западный, СЗ - северо-западный.
Видимость - горизонтальная дальность видимости в метрах или километрах. При видимости от 1 до 10 км при отсутствии осадков обычно наблюдается дымка, при ухудшении видимости до 1 км и менее - туман. В сухую погоду видимость может ухудшаться дымом, пылью или мглою.
Атмосферные явления - указаны явления, наблюдавшиеся в указанный момент времени.
Облачность - указаны через наклонную черту верхняя и нижняя облачность в баллах и высота нижней границы облаков в метрах. Внимание: облачность, как и прочие метеорологические величины в США измеряются автоматическими метеостанциями. Указанные значения в баллах носят условный характер и показывают процент времени, в течение которого, в среднем, лазерный луч высотомера отражался от облаков обратно.
T - Температура воздуха - температура, измеренная на высоте 2 м над землей.
Td - Температура точки росы - температура, при понижении до которой содержащийся в воздухе водяной пар достигнет насыщения.
f - Относительная влажность воздуха - влажноcть воздуха, измеренная на высоте 2 м над землей.
Te - Эффективная температура - температура, которую ощущает одетый по сезону человек в тени. Характеристика душности погоды. При расчете учитывается влияние влажности воздуха и скорости ветра на теплоощущения человека.
Tes - Эффективная температура на солнце - температура, которую ощущает человек, с поправкой на солнечный нагрев. Характеристика знойности погоды. Зависит от высоты солнца над горизонтом, облачности и скорости ветра. Ночью, в пасмурную погоду, а также при ветре 12 м/с и более поправка равна нулю.
P - Атмосферное давление - приведенное к уровню моря атмосферное давление.
Po - Атмосферное давление - измеренное на уровне метеостанции атмосферное давление.
Tmin - Минимальная температура - минимум температуры воздуха на высоте 2 м над землей.
Tmax - Максимальная температура - максимум температуры воздуха на высоте 2 м над землей.
R - Количество осадков - Количество выпавших осадков за 3 или 6 часов, мм.
SD - Снежный покров - Высота снежного покрова, см.